#timestamp,LO_Frequency,Hit,StdDev 
1675299615.1,286046999.7,N
1675299616.0,286046999.7,N
1675299635.8,286047003.2,N
1675299655.6,286047002.9,N
1675299675.5,286047003.1,N
1675299695.3,286047001.9,N
1675299715.2,286047010.6,N
1675299735.9,286047007.9,N
1675299755.7,286047004.6,N
1675299775.6,286047009.1,N
1675299795.4,286047003.1,N
1675299815.2,286047000.9,N
1675299835.1,286047000.6,N
1675299836.0,286047000.6,N
1675299855.8,286046997.7,N
1675299875.6,286046994.5,N
1675299895.5,286046997.6,N
1675299915.3,286046996.3,N
1675299935.2,286046992.2,N
1675299955.9,286046989.3,N
1675299975.7,286046987.4,N
1675299995.6,286046987.8,N
1675300015.4,286046990.2,N
1675300035.2,286046994.1,N
1675300055.1,286046998.6,N
1675300056.0,286046998.6,N
1675300075.8,286047002.5,N
1675300095.7,286047000.0,N
1675300115.5,286047000.7,N
1675300135.3,286047005.1,N
1675300155.2,286047009.8,N
1675300175.0,286047009.4,N
1675300175.9,286047009.4,N
1675300195.7,286047012.0,N
1675300215.6,286047017.1,N
1675300235.4,286047017.4,N
1675300255.3,286047026.4,Y
1675300275.1,286047021.3,P
1675300295.8,286047024.7,N
1675300315.7,286047020.7,N
1675300335.5,286047021.4,N
1675300355.3,286047020.9,N
1675300375.2,286047026.0,Y
1675300395.0,286047005.1,P
1675300395.9,286047005.1,N
1675300415.8,286047010.5,N
1675300435.6,286047011.8,N
1675300455.4,286047012.1,N
1675300505.3,286047004.3,E
1675300515.2,286047003.6,N
1675300535.1,286047003.8,P
1675300536.0,286047003.8,P
1675300555.8,286047003.7,Y
1675300575.6,286046995.7,P
1675300595.5,286046988.7,N
1675300615.3,286046986.3,N
1675300635.2,286046983.8,N
1675300655.9,286046985.5,N
1675300675.7,286046987.2,N
1675300695.6,286046990.8,N
1675300715.4,286046993.1,N
1675300735.2,286046988.0,N
1675300755.1,286046991.6,N
1675300756.0,286046991.6,N
1675300775.8,286046994.6,N
1675300795.7,286046990.8,N
1675300815.5,286046989.6,N
1675300835.3,286046984.6,Y
1675300855.2,286046991.0,P
1675300875.9,286046983.9,P
1675300895.7,286046980.5,P
1675300915.6,286046988.1,N
1675300935.4,286046988.2,N
1675300955.3,286046994.7,N
1675300975.1,286046990.7,N
1675300976.0,286046990.7,N
1675300995.8,286046991.1,N
1675301015.7,286046991.7,N
1675301035.5,286046995.9,N
1675301055.3,286046997.8,N
1675301075.2,286046991.8,N
1675301095.0,286046991.3,N
1675301095.9,286046991.3,N
1675301115.8,286046989.0,N
1675301135.6,286046989.0,N
1675301155.4,286046986.6,Y
1675301175.3,286046997.7,P
1675301195.1,286047001.1,N
1675301215.8,286046995.3,N
1675301235.7,286046992.6,N
1675301255.5,286046990.8,N
1675301275.4,286046986.9,Y
1675301295.2,286046991.3,P
1675301315.0,286046989.6,P
1675301315.9,286046989.6,P
1675301335.8,286046994.2,N
1675301355.6,286046997.9,N
1675301375.4,286047003.9,N
1675301395.3,286047004.3,N
1675301415.1,286046999.7,N
1675301435.9,286047002.6,N
1675301455.7,286046998.7,N
1675301475.5,286047002.3,N
1675301495.4,286047004.7,N
1675301515.2,286046997.8,N
1675301535.0,286047000.2,N
1675301535.9,286047000.2,N
1675301555.8,286047003.4,N
1675301575.6,286047006.9,N
1675301595.5,286047011.1,N
1675301615.3,286047013.2,N
1675301635.1,286047017.1,N
1675301655.9,286047012.1,N
1675301675.7,286047015.2,N
1675301695.5,286047016.3,N
1675301715.4,286047021.9,N
1675301735.2,286047024.1,N
1675301755.1,286047029.3,Y
1675301756.0,286047029.3,P
1675301775.8,286047021.9,N
1675301795.6,286047016.6,N
1675301815.5,286047023.6,N
1675301835.3,286047017.4,N
1675301855.1,286047011.1,N
1675301875.9,286047015.5,N
1675301895.7,286047012.6,N
1675301915.6,286047011.5,N
1675301935.4,286047007.0,N
1675301955.2,286047010.4,N
1675301975.1,286047007.4,N
1675301976.0,286047007.4,N
1675301995.8,286047003.5,N
1675302015.6,286046997.1,N
1675302035.5,286046993.5,N
1675302055.3,286046994.6,N
1675302075.2,286046990.8,N
1675302095.9,286046994.4,N
1675302115.7,286046989.0,N
1675302135.6,286046991.5,N
1675302155.4,286046993.5,N
1675302175.2,286046995.8,N
1675302195.1,286046998.7,N
1675302196.0,286046998.7,N
1675302215.8,286047003.4,N
1675302235.6,286047002.0,N
1675302255.5,286046999.1,N
1675302275.3,286046991.8,N
1675302295.2,286046995.9,N
1675302315.9,286046993.7,N
1675302335.7,286046990.3,N
1675302355.6,286046987.7,N
1675302375.4,286046991.5,N
1675302395.2,286046986.3,N
1675302415.1,286046991.3,N
1675302416.0,286046991.3,N
1675302435.8,286046993.0,N
1675302455.7,286046994.2,N
1675302475.5,286046996.3,N
1675302495.3,286046995.9,N
1675302515.2,286046995.6,N
1675302535.0,286046999.4,N
1675302535.9,286046999.4,N
1675302555.8,286046998.1,N
1675302575.6,286046997.9,N
1675302595.4,286046993.9,N
1675302615.3,286046998.3,N
1675302635.1,286047001.2,N
1675302655.9,286046999.1,N
1675302675.7,286046998.5,N
1675302695.5,286047000.1,N
1675302715.4,286046999.2,N
1675302735.3,286046999.3,N
1675302755.1,286047000.1,N
1675302756.0,286047000.1,N
1675302775.8,286046993.3,N
1675302795.7,286047007.5,N
1675302815.5,286047007.6,N
1675302835.3,286047009.3,N
1675302855.2,286047014.4,N
1675302875.0,286047016.1,N
1675302875.9,286047016.1,N
1675302895.8,286047016.6,N
1675302915.6,286047012.6,N
1675302935.4,286047008.1,N
1675302955.3,286047005.1,N
1675302975.1,286047001.9,N
1675302995.9,286047004.2,N
1675303015.7,286047002.3,N
1675303035.5,286046995.5,N
1675303055.4,286047002.8,N
1675303075.2,286047000.2,N
1675303095.0,286047000.9,N
1675303096.0,286047000.9,N
1675303115.8,286046997.6,N
1675303135.6,286046991.0,N
1675303155.5,286046989.4,N
1675303175.3,286046990.3,N
1675303195.1,286046992.9,N
